Regional Weather Roundup
Issued by NWS

Home | Current Version | Previous Version | Graphics & Text | Print | Product List | Glossary Off
Versions: 1 2 3 4 5 6 7 8 9 10 11 12 13 14 15 16 17 18 19 20 21 22 23 24 25 26 27 28 29 30 31 32 33 34 35 36 37 38 39 40 41 42 43 44 45 46 47 48 49 50

000
ASUS43 KTOP 202059
RWRKS

WEATHER ROUNDUP FOR KANSAS
NATIONAL WEATHER SERVICE GOODLAND KS
400 PM CDT FRI APR 20 2018

NOTE:  "FAIR" INDICATES FEW OR NO CLOUDS BELOW 12,000 FEET WITH NO
SIGNIFICANT WEATHER AND/OR OBSTRUCTIONS TO VISIBILITY.

KSZ001>006-013>018-027>032-041>047-202200-
NORTHWEST KANSAS

CITY           SKY/WX    TMP DP  RH WIND       PRES   REMARKS
GOODLAND       LGT RAIN  43  37  79 SE17G28   30.08F
HAYS           CLOUDY    59  33  37 SE14      30.15F
HILL CITY      CLOUDY    50  32  50 E9        30.16F
RUSSELL        CLOUDY    61  33  35 SE15      30.14F
$$

KSZ061>065-074>080-084>089-202200-
SOUTHWEST KANSAS

CITY           SKY/WX    TMP DP  RH WIND       PRES   REMARKS
DODGE CITY     CLOUDY    57  31  37 SE17      30.07F
GARDEN CITY    CLOUDY    51  41  68 E6        30.07F
GREAT BEND     CLOUDY    63  33  32 SE22      30.12
LIBERAL        CLOUDY    51  41  68 SE12      30.03F
$$

KSZ066>073-081>083-090>101-202200-
SOUTHEAST KANSAS

CITY           SKY/WX    TMP DP  RH WIND       PRES   REMARKS
CHANUTE        CLOUDY    67  29  24 E13       30.22F
COFFEYVILLE    SUNNY     67  31  26 SE13G21   30.21F
HUTCHINSON     CLOUDY    64  32  30 SE20G30   30.13F
MEDICINE LODGE   N/A     64  34  32 SE16G33   30.08F
NEWTON         CLOUDY    64  30  27 SE23      30.16F
PARSONS        MOSUNNY   67  29  24 E8G18     30.22F
WICHITA INTL   CLOUDY    65  31  28 SE25G31   30.14F
WICHITA JABRA  CLOUDY    65  29  25 SE23G33   30.15F
WICHITA MCCONL MOSUNNY   66  28  24 S21G26    30.14F
WINFIELD       SUNNY     66  31  27 SE23G31   30.15F
$$

KSZ007>012-019>026-033>040-048>060-102>105-202200-
NORTHEAST KANSAS

CITY           SKY/WX    TMP DP  RH WIND       PRES   REMARKS
CONCORDIA      CLOUDY    62  28  27 SE16G26   30.19F
EMPORIA        CLOUDY    64  28  25 SE17G26   30.19F
LAWRENCE       SUNNY     64  25  22 SE17G28   30.26F
MANHATTAN      CLOUDY    65  29  25 SE15G24   30.21F
OLATHE IND     SUNNY     63  26  24 E14       30.28F
OLATHE EXE     SUNNY     60  27  28 SE13G22   30.27F
SALINA         CLOUDY    66  32  28 SE22G30   30.16F
TOPEKA BILLARD CLOUDY    63  30  28 SE18G25   30.24F
TOPEKA FORBES  MOSUNNY   65  28  24 SE17G26   30.22F
$$




USA.gov is the U.S. government's official web portal to all federal, state and local government web resources and services.